Location: Unspecified
(44.0704°N, 88.6889°W)
Time: 12:33:25
(UTC+02:00)

Tiros 1 - Visible Passes

Search period start: 17 June 2019 00:00
Search period end: 27 June 2019 00:00
Orbit: 631 x 664 km, 48.4° (Epoch: 16 June)

Date Brightness Start Highest point End Pass type
(mag) Time Alt. Az. Time Alt. Az. Time Alt. Az.
17 Jun 7.2 09:14:15 50° S 09:15:02 58° SSE 09:19:36 10° ENE visible
17 Jun 7.7 10:52:43 10° W 10:57:18 57° NNW 11:01:52 10° ENE visible
18 Jun 8.7 08:01:02 21° ESE 08:01:02 21° ESE 08:03:11 10° E visible
18 Jun 7.1 09:38:39 28° WSW 09:41:05 83° NNW 09:45:44 10° ENE visible
18 Jun 8.0 11:19:07 10° WNW 11:23:37 49° N 11:28:07 10° ENE visible
19 Jun 7.3 08:25:21 54° SE 08:25:21 54° SE 08:29:36 10° ENE visible
19 Jun 7.6 10:02:57 11° W 10:07:18 58° NNW 10:11:53 10° ENE visible
20 Jun 9.1 07:11:57 16° E 07:11:57 16° E 07:13:08 10° E visible
20 Jun 7.0 08:49:33 42° WSW 08:51:06 87° NNW 08:55:46 10° ENE visible
20 Jun 8.0 10:29:05 10° W 10:33:37 49° N 10:38:07 10° ENE visible
21 Jun 7.6 07:36:01 44° ESE 07:36:01 44° ESE 07:39:37 10° ENE visible
21 Jun 7.6 09:13:37 16° W 09:17:18 60° NNW 09:21:54 10° ENE visible
21 Jun 8.0 10:55:25 10° WNW 10:59:57 51° N 11:04:28 10° E visible
22 Jun 9.2 06:22:17 14° E 06:22:17 14° E 06:23:05 10° E visible
22 Jun 7.0 07:59:51 49° WSW 08:01:07 89° SSE 08:05:47 10° ENE visible
22 Jun 8.0 09:39:04 10° W 09:43:36 50° N 09:48:07 10° ENE visible
22 Jun 7.6 11:21:37 10° WNW 11:26:14 64° NNE 11:30:50 10° E visible
23 Jun 7.4 06:45:38 46° SE 06:45:38 46° SE 06:49:37 10° ENE visible
23 Jun 7.5 08:23:10 13° W 08:27:17 62° NNW 08:31:55 10° ENE visible
23 Jun 8.0 10:05:24 10° WNW 10:09:57 50° N 10:14:28 10° E visible
24 Jun 8.3 05:29:59 22° SE 05:29:59 22° SE 05:33:02 10° E visible
24 Jun 7.0 07:07:14 15° WSW 07:11:07 85° SSE 07:15:48 10° ENE visible
24 Jun 8.0 08:49:02 10° W 08:53:36 50° N 08:58:08 10° ENE visible
24 Jun 7.6 10:31:37 10° WNW 10:36:15 62° NNE 10:40:50 10° E visible
25 Jun 7.4 05:50:39 10° SW 05:55:09 45° SE 05:59:37 10° ENE visible
25 Jun 7.5 07:32:37 10° W 07:37:17 64° NNW 07:41:56 10° ENE visible
25 Jun 8.0 09:15:23 10° WNW 09:19:56 50° N 09:24:27 10° E visible
25 Jun 7.1 10:57:45 10° WNW 11:02:25 88° SSW 11:07:03 10° ESE visible
26 Jun 8.3 04:35:50 10° S 04:39:24 21° SE 04:42:57 10° E visible
26 Jun 7.0 06:16:24 10° WSW 06:21:08 81° SSE 06:25:49 10° ENE visible
26 Jun 7.9 07:59:00 10° W 08:03:35 51° N 08:08:08 10° ENE visible
26 Jun 7.6 09:41:37 10° WNW 09:46:14 60° NNE 09:50:50 10° E visible
26 Jun 7.3 11:23:56 10° WNW 11:28:26 50° SSW 11:32:53 10° SE visible
